Content
SEND FEEDBACK

Daily
Averages
Monthly
Summary
United States of America

FALLON STATION, NEVADA


Home > North America > United States > Nevada
Elevation: 3934 feet     Latitude: 39 25N     Longitude: 118 43W

WEATHER
 
SELECT A DAY
Number of Records: 154,166;   Date Range: 1/1/95 - 8/30/14
 
SHARE

PRINT THIS DATA

[ ← Previous Day ]
WEATHER ALMANAC - JANUARY 3, 2013
[ Next Day → ]
[ °C ]   °F
Weather ElementAverageHighLow
Temperature12.7 °F28 °F (1:56 pm)-0.4 °F (6:16 am)
Dewpoint6.9 °F15.1 °F (12:56 pm)-4 °F (6:56 am)
Humidity79 %92 % (6:16 am)53 % (1:56 pm)
Barometer30.23 in30.33 in (6:16 am)30.19 in (1:56 pm)
Wind Speed2.5 mph8.1 mph (2:56 pm)
Weather ElementAverage
Visibility9.3 mi
Wind DirectionNNE (36.7 °)

Weather ElementTotal
Precipitation---
Heating Degree Days51.2 (Base 65)
Averaged from 24 records on January 3, 2013
WEATHER CONDITIONS BREAKOUT
WIND DIRECTION BREAKOUT
WEATHER BY HOUR - JANUARY 3, 2013
[ °C ]   °F
Local TimeTemperatureDewpointHumidityBarometerVisibilityWind DirectionWind SpeedGust SpeedPrecipitationEventsConditions
1:56 AM6.1 °F1.9 °F83 %30.22 in10.0 miNNE (30°)4.6 mphClear
2:56 AM5.0 °F1.0 °F84 %30.21 in9.0 miCalmClear
3:56 AM5.0 °F1.9 °F87 %30.20 in9.0 miCalmClear
4:56 AM3.9 °F1.9 °F91 %30.21 in9.0 miCalmClear
5:56 AM3.9 °F-0.9 °F80 %30.21 in10.0 miCalmClear
6:16 AM-0.4 °F-2.2 °F92 %30.33 in9.0 miCalmClear
6:56 AM1.0 °F-4.0 °F79 %30.22 in9.0 miSW (230°)4.6 mphScattered Clouds
7:56 AM5.0 °F1.9 °F87 %30.24 in8.0 miCalmScattered Clouds
8:56 AM10.0 °F7.0 °F87 %30.25 in9.0 miCalmScattered Clouds
9:56 AM15.1 °F10.9 °F84 %30.26 in10.0 miCalmScattered Clouds
10:56 AM19.0 °F12.0 °F74 %30.24 in10.0 miCalmScattered Clouds
11:56 AM21.9 °F14.0 °F72 %30.22 in10.0 miCalmScattered Clouds
12:56 PM26.1 °F15.1 °F63 %30.20 in10.0 miENE (70°)4.6 mphScattered Clouds
1:56 PM28.0 °F12.9 °F53 %30.19 in10.0 miVariable4.6 mphScattered Clouds
2:56 PM28.0 °F14.0 °F56 %30.19 in10.0 miNNE (20°)8.1 mph0.00 inScattered Clouds
3:56 PM27.0 °F14.0 °F58 %30.20 in10.0 miNorth (10°)6.9 mphPartly Cloudy
4:56 PM21.9 °F14.0 °F72 %30.21 in10.0 miNE (50°)6.9 mphPartly Cloudy
5:56 PM18.0 °F12.0 °F78 %30.22 in10.0 miNE (50°)5.8 mphPartly Cloudy
6:56 PM14.0 °F10.0 °F84 %30.22 in10.0 miCalmClear
7:56 PM12.9 °F10.0 °F88 %30.22 in10.0 miNE (50°)3.5 mphClear
8:56 PM10.9 °F8.1 °F88 %30.24 in7.0 miNorth (350°)3.5 mphClear
9:56 PM9.0 °F6.1 °F88 %30.25 in8.0 miNNE (20°)5.8 mphClear
10:56 PM7.0 °F1.9 °F80 %30.26 in8.0 miCalmClear
11:56 PM6.1 °F3.0 °F87 %30.25 in7.0 miCalmClear
Hourly data recorded from KNFL, located miles away from Fallon Station, Nevada







STORIES FROM OUR PARTNERS